THOR ABLESTAR DEB, 715

Orbit data source: Space-Track

THOR ABLESTAR DEB, 715 is space debris in LEO originally from a launch on Thu, 05 Dec 1963 UTC launched from the Air Force Western Test Range (AFWTR). Debris objects in space refer to the collection of defunct objects orbiting the Earth. Examples of debris include non-operational satellites, rocket bodies, and fragments generated from explosions, collisions, or faulty payload assembly.

Loading next visibility...
Identifier
715, 1963-049E
Orbit
LEO
Country
Flag of USUS
Related business
Manufacturer
Unknown
Mission
Spacecraft
Bus & Motor
Unknown
Mass
Unknown
Launch date (UTC)
1963-12-05 (63 years ago)
Launch vehicle
Unknown
Launch site
Air Force Western Test Range (AFWTR)
Object type
Payload
Rocket body
Debris
Shape & HBR
Unknown shape, 0.1 m
Radar Cross Section
Medium (>0.1 m² and <1 m²)

Expand to show TLE details & history
Last TLE update: 1 day ago

TLE from 1 day ago
0 THOR ABLESTAR DEB
1 00715U 63049E   26170.70514991  .00000544  00000-0  55161-3 0  9991
2 00715  89.9100  77.5081 0029175 150.5344 238.5905 13.75636592103739
Epoch: 2026-06-19T16:55Z
TLE epoch observation values (Epoch: 2026-06-19T16:55:24.952Z)
Latitude
28.88347°
Longitude
-84.22677°
Altitude
994.302 km
Speed
7.351 km/s
True Right ascension
05h 10m 13s
True Declination
28° 44' 35"
Sunlit
Object was in daylight at epoch
Visualization orbit readout
Latitude
Unknown
Longitude
Unknown
Altitude
Unknown
Speed
Unknown
Apparent Right ascension
Unknown
Apparent Declination
Unknown
Sunlit
N/A
Visualization observer readout
Local Sidereal Time
11:43:29
Azimuth
Unknown
Elevation
Unknown
Doppler factor
Unknown
Orbital elements
Apogee altitude
997.873 km
Perigee altitude
954.96 km
Semi-major axis
7,354.554 km
Eccentricity
0.00292
Inclination
89.91°
RAAN
77.5081°
Arg. of periapsis
150.5344°
True anomaly
238.30571°
Mean anomaly
238.5905°
Eccentric anomaly
238.44805°
Mean motion
3.44119 °/min
Orbital period
104.61 mins
BSTAR
0.00055161
Loading maneuver chart data...
Computing Atmospheric mass density...
Loading historical data...
Loading historical data...
Loading historical data...
Loading historical data...
Loading historical data...
Loading historical data...
Loading historical data...

Documentation

Showing up to 5 results
|